Home > Weather > Pago Pago > Past weeks

Flag for American Samoa Weather for the Past 2 Weeks in Pago Pago, American Samoa

Now
91 °F

Broken clouds.


Feels Like: 109 °F
Forecast: 83 / 89 °F
Wind: 18 mph from Southeast

Location: Pago Pago / Int. Airp.

Current Time: Feb 5, 2016 at 12:19:06 PM

Latest Report: Feb 5, 2016 at 10:50 AM


Visibility: 11 mi

Pressure: 29.81 "Hg

Humidity: 70%

Dew point: 80 °F

Location of Pago PagoLocation

Historic Weather in Pago Pago — Graph

°F

Pago Pago Temperature Yesterday

Maximum temperature yesterday: 90 °F (at 11:51 AM)
Minimum temperature yesterday: 82 °F (at 12:52 PM)
Average temperature yesterday: 85 °F

High & Low Weather Summary for the Past Weeks

 TemperatureHumidityPressure
High93 °F (Feb 2, 2:00 PM)94% (Jan 24, 6:50 AM)29.93 "Hg (Jan 24, 6:50 AM)
Low78 °F (Jan 24, 5:52 AM)18% (Feb 2, 6:52 PM)29.67 "Hg (Jan 21, 3:50 PM)
Average85 °F79%29.83 "Hg
* Reported Jan 21 10:50 AM — Feb 5 10:50 AM, Pago Pago, Weather by CustomWeather, © 2016

Note: Actual official high and low records may vary slightly from our data, if they occured in-between our weather recording intervals... More about our weather records

Advertising

Pago Pago Weather History for the Previous 24 Hours

 ConditionsComfort  
Time TempWeatherWind HumidityBarometerVisibility
10:50 AM
Fri, Feb 5
91 °FBroken clouds.18 mph70%29.81 "Hg11 mi
9:51 AM90 °FBroken clouds.20 mph72%29.82 "Hg11 mi
8:50 AM88 °FBroken clouds.18 mph76%29.82 "Hg11 mi
7:51 AM86 °FBroken clouds.20 mph81%29.81 "Hg11 mi
6:50 AM84 °FBroken clouds.17 mph84%29.80 "Hg11 mi
5:50 AM84 °FOvercast.17 mph87%29.78 "Hg10 mi
4:56 AM84 °FPartly cloudy.17 mph86%29.78 "Hg10 mi
2:52 AM83 °FOvercast.20 mph85%29.77 "Hg10 mi
1:53 AM84 °FOvercast.20 mph85%29.79 "Hg10 mi
11:51 PM
Thu, Feb 4
84 °FPartly cloudy.18 mph86%29.83 "Hg10 mi
10:51 PM84 °FPassing clouds.18 mph86%29.83 "Hg10 mi
9:50 PM84 °FPassing clouds.17 mph84%29.81 "Hg10 mi
8:50 PM84 °FPassing clouds.17 mph85%29.81 "Hg10 mi
7:52 PM84 °FPassing clouds.14 mph85%29.80 "Hg8 mi
6:50 PM85 °FCloudy.14 mph83%29.77 "Hg11 mi
5:51 PM86 °FCloudy.14 mph82%29.75 "Hg11 mi
4:52 PM88 °FCloudy.17 mph77%29.72 "Hg11 mi
3:51 PM88 °FCloudy.17 mph77%29.72 "Hg11 mi
2:50 PM89 °FPartly sunny.16 mph75%29.73 "Hg11 mi
1:50 PM89 °FBroken clouds.14 mph79%29.75 "Hg11 mi
12:52 PM82 °FSprinkles. Cloudy.9 mph86%29.78 "Hg10 mi
Weather by CustomWeather, © 2016

See weather overviewHow to use our weather pages